Theta_e
342 345 347 347 350 352 355 357 361 370 363 357 356 357 354 362 359 360 361 365 364 364 367 359 358 358 356 355 354 348 347 337 344 338 338 337 341 342 342 345 341 344 346
339 343 347 347 350 352 356 361 364 371 367 361 363 360 360 355 358 359 362 366 363 368 361 364 361 359 352 355 351 348 339 335 344 335 333 330 335 339 340 341 339 339 341
336 341 345 347 349 351 356 363 369 371 370 371 367 363 362 359 355 352 352 356 360 359 364 363 360 361 353 348 350 345 343 334 338 343 335 329 328 332 340 342 338 339 337
337 340 344 346 348 351 356 365 370 372 371 373 366 369 356 351 349 352 352 354 356 356 362 360 358 359 353 352 346 344 343 342 335 338 341 341 339 330 329 337 336 337 335
338 338 341 346 349 351 353 360 371 373 373 373 371 362 362 353 352 351 365 361 365 358 354 357 361 357 349 352 347 346 346 341 337 337 336 341 336 338 329 325 331 334 334
339 341 342 345 347 350 352 356 368 374 376 374 373 373 371 362 354 355 355 351 349 353 357 356 359 362 352 348 347 348 345 344 344 341 338 333 331 331 330 328 331 330 332
338 340 341 341 346 349 353 355 366 372 376 373 372 372 373 373 369 363 354 358 346 346 361 362 361 355 357 350 350 349 346 345 342 344 337 336 335 335 332 330 328 326 330
339 338 340 341 344 348 355 358 363 371 374 374 373 375 376 363 361 365 356 352 346 347 362 358 357 353 355 354 352 344 343 347 343 343 343 337 335 335 334 331 328 324 326
338 339 340 341 341 347 354 357 362 370 373 371 375 375 374 371 362 367 370 358 363 348 356 355 354 354 351 350 350 343 345 345 345 344 345 340 337 336 336 335 332 328 321
335 339 340 341 345 344 351 358 363 369 372 372 373 371 372 373 373 373 371 367 364 358 357 354 353 353 350 352 352 348 349 347 342 339 345 343 339 339 336 338 339 339 332
332 337 341 343 347 346 349 354 360 366 370 371 371 371 370 369 371 368 369 369 368 362 357 356 354 353 348 351 351 350 346 345 346 344 343 345 347 337 336 339 342 339 336
330 334 339 342 344 350 348 349 354 357 364 367 371 370 371 370 368 368 369 369 366 362 357 356 353 351 350 350 348 345 343 342 342 343 345 341 337 345 347 337 343 336 340
332 335 336 340 346 351 353 352 354 352 357 364 365 370 370 369 367 369 369 369 363 359 354 355 352 349 348 348 349 347 346 344 342 341 341 340 341 344 340 340 339 333 337
332 338 338 336 346 352 356 357 355 352 355 358 361 367 370 370 368 370 369 366 361 356 353 353 352 348 348 346 346 345 344 343 342 342 344 341 341 343 346 343 345 342 335
329 338 341 342 352 354 360 359 360 360 358 362 363 367 372 372 372 369 367 363 360 353 353 352 346 346 342 342 347 346 343 344 342 343 342 345 343 339 337 337 340 343 334
327 336 343 345 350 355 359 362 361 362 364 365 365 369 372 372 369 367 367 361 356 353 351 348 343 343 343 333 334 343 342 345 344 344 345 345 340 339 333 332 331 332 334
329 329 342 347 353 352 360 361 363 365 365 369 367 371 372 370 365 363 363 358 355 352 350 347 346 345 347 327 329 333 343 343 345 344 345 341 341 336 335 332 331 329 328
329 332 337 345 349 352 354 361 360 365 367 367 369 371 369 365 362 360 361 360 355 351 347 347 348 347 347 325 325 331 342 344 345 346 345 342 338 336 333 331 331 331 333
334 335 331 343 351 354 360 364 363 363 365 365 368 367 365 364 361 354 357 358 355 349 348 347 348 346 346 324 323 329 340 340 344 345 340 339 335 329 326 326 325 327 333
332 332 336 340 348 355 354 361 360 362 363 363 365 366 365 361 357 356 356 357 353 349 345 344 347 337 344 324 320 328 347 344 338 344 341 326 332 321 319 328 329 327 330
336 339 343 344 357 359 360 360 359 358 361 361 362 363 360 360 359 357 357 351 346 343 344 342 341 343 342 343 317 317 345 341 342 337 335 333 319 315 313 316 330 326 324
340 342 344 349 354 361 363 362 362 367 366 363 358 359 360 356 354 353 350 348 344 345 344 341 341 347 351 329 316 315 317 327 336 335 332 331 316 312 311 314 318 313 312
344 345 347 353 356 361 365 361 366 367 364 361 360 359 358 354 353 347 344 341 343 341 341 339 344 344 347 342 314 311 313 316 327 330 319 311 309 309 310 311 313 310 318
347 350 349 350 355 362 362 362 362 365 361 357 354 351 348 347 348 344 343 342 340 340 340 339 340 340 343 339 334 329 322 316 322 317 324 320 318 316 314 319 315 319 321
346 348 349 351 351 354 355 357 357 358 354 350 349 346 346 346 340 327 327 341 335 327 341 338 337 334 334 333 317 319 326 326 322 327 330 326 324 323 323 323 324 320 321
346 348 349 349 350 351 352 355 355 354 351 346 345 341 341 339 340 335 325 300 302 300 301 304 323 324 308 300 298 297 299 302 303 323 325 323 323 322 324 322 319 321 318
Wind_Speed
20 19 18 18 18 16 16 16 14 12 9 10 10 10 10 9 8 8 3 5 6 7 7 6 8 6 4 3 2 5 7 4 5 7 3 2 6 4 3 2 5 5 2
20 20 19 19 19 18 18 16 15 12 11 10 9 7 6 9 11 10 7 9 5 11 7 6 3 5 6 3 2 2 5 5 5 6 7 3 6 5 4 4 3 5 2
22 22 21 21 20 20 19 17 15 15 13 13 8 6 7 5 5 5 7 8 10 6 6 6 6 4 3 4 2 1 1 5 1 2 5 4 4 1 4 6 6 4 4
22 22 24 23 22 21 20 17 17 16 15 14 12 11 10 9 9 8 4 2 4 6 9 5 5 3 3 5 1 2 4 2 4 1 4 4 5 6 3 4 6 6 4
23 24 24 25 22 22 21 19 18 17 16 16 15 10 12 9 7 5 6 2 5 6 6 6 5 4 5 6 1 1 1 1 5 2 3 3 3 2 5 5 5 1 5
22 22 22 22 22 21 21 20 19 16 18 16 17 14 11 11 8 8 6 5 7 8 7 8 6 5 3 2 3 2 2 3 5 6 2 3 3 3 4 5 4 5 4
21 22 23 22 21 22 21 19 19 19 18 18 16 17 14 11 10 7 9 7 8 7 9 7 7 5 4 3 3 4 2 3 3 2 6 4 3 3 3 5 6 6 5
20 22 23 22 21 22 21 20 20 19 19 19 17 15 15 12 12 12 9 9 8 7 11 9 8 6 6 4 5 5 5 5 5 5 4 6 5 4 4 4 6 7 7
22 25 24 23 23 21 21 21 19 20 19 19 16 16 15 15 14 13 12 8 6 7 12 11 11 11 7 6 5 5 5 4 5 5 6 6 5 5 4 4 5 6 7
21 21 23 24 21 23 20 21 20 19 18 19 17 16 16 16 13 11 11 11 9 8 11 12 13 10 12 12 10 6 8 6 6 6 4 3 6 6 6 5 3 3 3
19 20 22 23 24 22 22 22 22 20 19 19 18 18 17 17 15 13 13 12 10 10 12 13 13 13 7 11 9 10 7 8 7 7 5 4 6 6 8 5 2 4 4
16 21 22 22 24 24 23 24 23 22 21 19 18 19 17 17 17 16 15 15 13 14 14 14 13 13 13 12 11 9 9 9 9 5 7 9 7 7 8 7 8 8 6
2 8 11 20 21 23 22 22 23 24 23 20 20 19 19 19 19 18 16 16 16 16 16 15 15 14 12 13 12 10 9 8 9 10 10 10 9 7 7 6 9 9 5
8 10 13 15 19 19 22 20 21 23 22 22 20 19 19 18 18 16 17 17 17 18 17 16 15 13 13 12 10 12 12 11 10 10 9 10 9 9 7 9 8 9 9
10 9 13 13 15 17 18 20 18 19 20 19 19 18 17 16 15 15 15 15 16 15 14 15 14 14 13 12 11 12 12 12 11 10 9 10 10 8 4 7 10 9 8
17 11 11 14 16 18 17 18 19 18 17 18 18 16 17 16 15 15 15 15 14 13 13 13 14 14 11 13 15 11 11 12 10 11 9 7 3 2 3 4 11 13 8
19 16 13 15 14 18 16 18 18 16 17 15 16 15 15 15 14 15 16 16 16 16 17 15 14 13 13 10 14 14 11 11 11 11 8 4 3 2 0 1 5 16 16
21 20 14 16 18 19 20 16 18 17 16 15 14 14 15 14 14 15 15 15 15 14 13 13 13 11 10 10 13 13 14 11 11 11 10 10 6 4 3 3 6 8 14
20 19 18 18 17 19 17 16 16 17 16 16 15 15 16 15 14 15 15 14 13 11 13 12 11 11 7 11 11 13 13 13 12 11 8 10 8 9 10 5 7 8 12
19 17 16 12 19 17 19 17 17 16 16 16 16 15 15 14 15 14 13 9 10 9 7 10 9 9 9 8 13 16 8 11 11 10 12 8 12 12 12 9 11 11 12
14 15 14 13 15 15 16 16 16 17 16 16 15 14 14 13 12 9 10 8 8 8 8 7 7 10 10 9 11 13 9 10 9 9 9 7 14 13 10 11 9 8 7
12 14 14 12 15 14 15 15 14 13 13 14 14 13 13 10 8 11 8 7 6 7 9 8 6 8 8 7 10 8 11 3 6 9 5 9 3 10 11 9 3 2 4
10 12 13 14 13 13 13 16 14 13 14 13 12 11 11 9 8 9 8 6 7 8 7 6 4 4 4 4 10 11 6 4 5 3 4 11 10 8 6 7 3 4 8
9 10 16 17 16 14 15 15 14 13 13 14 12 11 10 11 11 8 7 7 6 6 5 5 4 5 6 6 4 4 3 5 4 6 6 7 3 1 2 3 7 8 8
13 14 14 16 17 16 16 16 15 14 13 12 12 11 9 8 8 10 7 2 7 3 3 5 3 4 5 6 5 5 6 8 7 9 7 7 7 8 8 7 4 7 6
10 11 13 17 16 16 17 15 15 14 14 13 10 9 9 9 10 11 8 15 10 6 7 6 4 7 10 12 14 12 8 8 8 4 7 8 7 4 1 4 5 4 4
Wind_Direction
195 197 196 192 192 193 190 193 202 186 195 200 199 213 204 182 220 251 180 199 231 254 260 260 164 202 257 145 251 342 304 312 33 285 261 171 193 202 329 87 13 67 40
200 194 193 197 195 192 185 191 196 189 200 195 222 222 218 210 205 207 210 203 223 214 227 254 298 185 152 157 88 6 309 292 87 320 288 236 172 197 119 43 356 11 11
202 192 196 201 198 195 194 188 193 192 193 229 199 201 266 264 262 229 229 214 207 216 216 230 257 145 286 124 113 87 249 320 313 54 318 294 71 241 127 157 73 317 20
207 201 194 201 204 199 193 195 191 196 197 205 230 200 207 221 215 223 223 136 180 225 183 201 198 209 280 53 155 150 318 303 324 294 156 355 2 326 114 165 146 182 167
203 208 201 198 206 203 198 195 194 195 204 196 224 207 222 218 237 218 130 180 151 219 195 189 188 182 242 108 360 170 225 274 305 338 6 74 242 125 316 317 137 194 157
202 205 209 201 200 206 205 198 189 196 198 201 198 229 210 229 239 203 171 199 196 180 205 190 189 173 232 177 205 154 191 316 342 329 342 295 328 335 321 297 306 331 280
206 200 205 205 198 201 201 202 189 192 197 201 202 204 222 209 233 237 197 224 198 185 163 194 167 177 198 184 234 169 290 196 286 303 316 326 281 296 306 306 294 295 313
204 207 201 203 198 197 197 199 190 188 195 199 201 198 204 212 217 207 235 205 220 184 141 174 171 196 174 200 171 218 226 205 207 232 269 305 307 293 282 288 314 306 296
199 205 203 202 201 193 194 194 197 190 194 199 196 199 196 215 212 217 193 232 216 166 156 173 181 179 186 206 204 246 215 235 234 242 231 252 273 272 293 285 276 288 289
194 203 202 200 200 195 195 194 195 193 195 197 194 198 197 201 220 203 198 214 193 218 158 182 183 192 180 180 185 219 210 229 249 243 232 260 274 293 245 245 282 16 330
195 198 202 202 196 198 193 194 195 198 195 198 197 198 197 198 200 213 198 205 196 184 174 192 191 200 199 170 194 195 234 205 218 243 269 260 266 269 291 310 288 223 230
212 193 194 201 199 196 201 196 198 197 198 202 200 197 196 196 199 207 200 196 190 187 188 190 196 198 190 183 190 200 217 210 225 218 238 252 248 229 231 265 262 276 287
259 293 216 197 200 191 196 202 194 198 198 200 199 198 199 198 200 199 199 195 186 188 193 192 197 199 191 189 202 197 207 219 217 226 235 243 246 247 268 298 294 292 273
211 224 242 235 190 197 189 200 193 200 196 195 201 199 199 201 201 195 198 195 190 190 192 192 195 199 194 200 202 199 207 215 221 227 239 249 247 253 260 253 250 255 263
217 211 236 228 188 194 188 193 200 197 195 193 196 197 193 199 198 196 205 193 201 200 191 188 196 200 206 206 198 206 204 216 226 230 233 234 245 330 323 298 296 310 283
265 200 211 224 197 195 191 188 199 197 198 190 193 189 187 189 190 201 204 195 201 201 197 195 202 205 210 189 192 194 210 219 218 228 218 255 190 166 22 292 297 294 285
258 260 198 219 202 197 190 193 192 195 189 196 189 183 176 183 192 202 217 189 199 197 197 195 202 210 214 190 185 190 222 218 213 230 215 218 196 137 197 266 256 270 254
255 261 202 201 210 200 191 190 188 189 186 191 182 172 175 180 192 210 204 199 201 207 202 199 204 212 214 180 179 186 217 228 236 227 216 207 209 200 232 261 266 267 280
242 242 242 193 195 197 181 181 185 184 178 180 177 174 184 188 190 203 208 203 202 199 210 215 216 225 221 194 194 187 218 228 227 233 193 212 209 185 177 203 225 253 261
236 253 262 190 176 187 180 172 183 180 177 177 175 175 179 184 194 197 205 190 197 204 192 221 221 225 238 191 189 202 225 229 229 205 231 213 230 181 188 217 241 250 262
240 247 235 197 165 180 166 169 176 179 174 168 168 168 173 181 188 171 187 158 170 172 198 205 203 222 216 215 195 198 220 239 217 239 220 227 216 204 187 219 244 263 323
223 205 199 170 161 166 152 160 159 157 152 152 157 164 164 176 151 155 163 152 155 180 188 196 205 225 236 232 195 203 240 290 262 246 225 241 171 183 180 198 175 92 301
186 181 152 143 142 140 150 142 135 148 144 146 142 153 144 149 146 139 141 151 175 190 198 214 215 239 227 181 153 176 177 251 262 301 96 106 120 138 176 225 214 253 259
130 135 145 140 138 135 123 120 132 133 142 135 138 139 152 130 142 143 158 162 178 191 197 215 203 213 186 152 144 156 185 236 223 189 167 134 145 276 48 138 197 235 257
130 142 132 125 126 125 127 125 128 136 128 131 135 141 136 137 101 63 41 109 61 348 191 181 187 138 171 177 122 152 184 199 200 204 195 207 215 222 212 220 221 199 251
98 108 118 118 119 121 120 123 125 129 126 133 133 138 141 148 152 144 118 53 53 48 55 33 100 82 73 104 100 101 101 67 43 217 256 266 261 250 190 178 212 218 241